| time (UTC) | temp C | wind direction | speed KPH | gust KPH | rain 1hr cm | rain 24hr cm | rain mn cm | humidity % | barometer mb |
| 20260510135608 | 10 | 13 | 3.2 | 12.9 | 0.00 | 0.43 | 0.00 | 67 | 1017.0 |
| 20260510135108 | 10 | 64 | 3.2 | 12.9 | 0.00 | 0.43 | 0.00 | 67 | 1017.2 |
| 20260510134608 | 10 | 15 | 4.8 | 12.9 | 0.00 | 0.43 | 0.00 | 68 | 1017.0 |
| 20260510134107 | 10 | 29 | 8.0 | 12.9 | 0.00 | 0.46 | 0.00 | 69 | 1016.9 |
| 20260510133608 | 10 | 173 | 1.6 | 9.7 | 0.00 | 0.46 | 0.00 | 70 | 1017.1 |
| 20260510133108 | 9 | 5 | 4.8 | 9.7 | 0.00 | 0.48 | 0.00 | 69 | 1016.8 |
| 20260510132608 | 9 | 32 | 1.6 | 3.2 | 0.00 | 0.48 | 0.00 | 70 | 1016.9 |
| 20260510132107 | 10 | 93 | 3.2 | 3.2 | 0.00 | 0.51 | 0.00 | 70 | 1016.7 |
| 20260510131608 | 9 | 182 | 1.6 | 9.7 | 0.00 | 0.51 | 0.00 | 71 | 1016.8 |
| 20260510131108 | 9 | 130 | 1.6 | 9.7 | 0.00 | 0.53 | 0.00 | 72 | 1016.7 |
| 20260510130608 | 8 | 138 | 1.6 | 8.0 | 0.00 | 0.56 | 0.00 | 73 | 1016.8 |
| 20260510125607 | 8 | 74 | 3.2 | 12.9 | 0.00 | 0.58 | 0.00 | 72 | 1016.5 |
| 20260510125108 | 8 | 38 | 4.8 | 8.0 | 0.00 | 0.61 | 0.00 | 72 | 1016.4 |
| 20260510124608 | 8 | 38 | 4.8 | 12.9 | 0.00 | 0.61 | 0.00 | 72 | 1016.3 |
| 20260510124108 | 8 | 192 | 1.6 | 11.3 | 0.00 | 0.61 | 0.00 | 74 | 1016.1 |
| 20260510123608 | 8 | 143 | 1.6 | 1.6 | 0.00 | 0.64 | 0.00 | 77 | 1015.9 |
| 20260510122608 | 8 | 143 | 1.6 | 3.2 | 0.00 | 0.66 | 0.00 | 77 | 1015.9 |
| 20260510122108 | 8 | 176 | 1.6 | 3.2 | 0.00 | 0.69 | 0.00 | 77 | 1015.7 |
| 20260510121608 | 8 | 186 | 1.6 | 1.6 | 0.00 | 0.69 | 0.00 | 78 | 1015.6 |
| 20260510121108 | 8 | 186 | 1.6 | 9.7 | 0.00 | 0.69 | 0.00 | 78 | 1015.5 |
| 20260510120608 | 8 | 34 | 8.0 | 9.7 | 0.00 | 0.69 | 0.00 | 77 | 1015.6 |
| 20260510120108 | 8 | 34 | 8.0 | 9.7 | 0.00 | 0.69 | 0.00 | 77 | 1015.7 |
| 20260510115608 | 8 | 180 | 1.6 | 1.6 | 0.00 | 0.69 | 0.00 | 76 | 1015.3 |
| 20260510115107 | 8 | 180 | 1.6 | 1.6 | 0.00 | 0.69 | 0.00 | 76 | 1015.2 |
| 20260510114108 | 8 | 159 | 1.6 | 1.6 | 0.00 | 0.69 | 0.00 | 76 | 1015.0 |
| 20260510113608 | 8 | 159 | 1.6 | 1.6 | 0.00 | 0.69 | 0.00 | 76 | 1014.8 |
| 20260510113107 | 8 | 159 | 1.6 | 1.6 | 0.00 | 0.69 | 0.00 | 76 | 1014.7 |
| 20260510112608 | 8 | 159 | 1.6 | 1.6 | 0.00 | 0.69 | 0.00 | 76 | 1014.8 |
| 20260510112108 | 8 | 159 | 1.6 | 1.6 | 0.00 | 0.69 | 0.00 | 76 | 1014.7 |
| 20260510111608 | 8 | 159 | 1.6 | 1.6 | 0.00 | 0.69 | 0.00 | 76 | 1014.9 |
| 20260510110608 | 7 | 184 | 0.0 | 0.0 | 0.00 | 0.69 | 0.00 | 82 | 1014.3 |
| 20260510110108 | 7 | 184 | 0.0 | 0.0 | 0.00 | 0.69 | 0.00 | 82 | 1014.2 |
| 20260510105608 | 7 | 184 | 0.0 | 0.0 | 0.00 | 0.69 | 0.00 | 82 | 1014.1 |
| 20260510105108 | 7 | 184 | 0.0 | 0.0 | 0.00 | 0.69 | 0.00 | 82 | 1014.0 |
| 20260510104108 | 7 | 184 | 0.0 | 0.0 | 0.00 | 0.69 | 0.00 | 82 | 1014.0 |
| 20260510103608 | 7 | 184 | 0.0 | 0.0 | 0.00 | 0.69 | 0.00 | 82 | 1013.9 |
| 20260510103108 | 7 | 184 | 0.0 | 0.0 | 0.00 | 0.69 | 0.00 | 82 | 1013.8 |
| 20260510102608 | 7 | 184 | 0.0 | 0.0 | 0.00 | 0.69 | 0.00 | 82 | 1013.3 |
| 20260510102108 | 7 | 184 | 0.0 | 0.0 | 0.00 | 0.69 | 0.00 | 82 | 1013.4 |
| 20260510101608 | 7 | 184 | 0.0 | 0.0 | 0.00 | 0.69 | 0.00 | 82 | 1013.4 |
| 20260510100608 | 7 | 184 | 0.0 | 0.0 | 0.00 | 0.69 | 0.00 | 82 | 1013.2 |
| 20260510100108 | 7 | 184 | 0.0 | 0.0 | 0.00 | 0.69 | 0.00 | 82 | 1013.1 |
| 20260510095607 | 7 | 184 | 0.0 | 0.0 | 0.00 | 0.69 | 0.00 | 82 | 1013.0 |
| 20260510095108 | 7 | 184 | 0.0 | 0.0 | 0.00 | 0.69 | 0.00 | 82 | 1012.8 |
| 20260510024609 | 12 | 188 | 0.0 | 0.0 | 0.00 | 0.69 | 0.23 | 88 | 1008.7 |
| 20260510024110 | 12 | 178 | 0.0 | 0.0 | 0.00 | 0.69 | 0.23 | 88 | 1008.6 |
| 20260510023610 | 12 | 163 | 0.0 | 0.0 | 0.03 | 0.69 | 0.23 | 87 | 1009.0 |
| 20260510023110 | 12 | 189 | 0.0 | 0.0 | 0.03 | 0.69 | 0.23 | 87 | 1008.7 |
| 20260510022609 | 13 | 187 | 0.0 | 0.0 | 0.05 | 0.69 | 0.23 | 87 | 1008.6 |
| 20260510022110 | 13 | 188 | 0.0 | 0.0 | 0.05 | 0.69 | 0.23 | 87 | 1008.8 |
| 20260510021609 | 13 | 195 | 0.0 | 0.0 | 0.05 | 0.69 | 0.23 | 86 | 1008.8 |
| 20260510021109 | 13 | 189 | 0.0 | 0.0 | 0.05 | 0.69 | 0.23 | 86 | 1008.7 |
| 20260510020610 | 13 | 177 | 0.0 | 1.6 | 0.05 | 0.69 | 0.23 | 85 | 1008.5 |
| 20260510020110 | 13 | 187 | 0.0 | 1.6 | 0.05 | 0.69 | 0.23 | 85 | 1008.2 |
| 20260510015610 | 13 | 183 | 1.6 | 3.2 | 0.05 | 0.69 | 0.23 | 85 | 1008.5 |
| 20260510015110 | 13 | 197 | 1.6 | 3.2 | 0.05 | 0.69 | 0.23 | 85 | 1008.0 |
| 20260510014609 | 13 | 222 | 4.8 | 8.0 | 0.05 | 0.69 | 0.23 | 86 | 1007.9 |
| 20260510014109 | 13 | 128 | 4.8 | 16.1 | 0.05 | 0.69 | 0.23 | 86 | 1007.8 |
| 20260510013610 | 12 | 115 | 3.2 | 16.1 | 0.03 | 0.71 | 0.20 | 88 | 1008.5 |
| 20260510013110 | 12 | 196 | 0.0 | 3.2 | 0.03 | 0.74 | 0.20 | 88 | 1008.3 |
| 20260510012609 | 12 | 214 | 1.6 | 1.6 | 0.00 | 0.79 | 0.18 | 88 | 1008.0 |
| 20260510012109 | 12 | 189 | 0.0 | 0.0 | 0.00 | 0.79 | 0.18 | 88 | 1007.8 |
| 20260510011610 | 12 | 189 | 0.0 | 0.0 | 0.00 | 0.79 | 0.18 | 88 | 1007.9 |
| 20260510011110 | 12 | 186 | 0.0 | 3.2 | 0.00 | 0.81 | 0.18 | 88 | 1007.7 |
| 20260510010110 | 12 | 186 | 0.0 | 3.2 | 0.00 | 0.81 | 0.18 | 87 | 1007.6 |
| 20260510005110 | 12 | 192 | 0.0 | 1.6 | 0.00 | 0.84 | 0.18 | 87 | 1007.5 |
| 20260510004609 | 12 | 190 | 0.0 | 1.6 | 0.03 | 0.84 | 0.18 | 86 | 1007.3 |
| 20260510004110 | 13 | 170 | 0.0 | 0.0 | 0.03 | 0.84 | 0.18 | 86 | 1007.3 |
| 20260510003610 | 13 | 187 | 0.0 | 0.0 | 0.05 | 0.84 | 0.18 | 86 | 1007.4 |
| 20260510003110 | 13 | 185 | 0.0 | 0.0 | 0.05 | 0.84 | 0.18 | 85 | 1007.4 |
| 20260510002609 | 13 | 183 | 0.0 | 1.6 | 0.05 | 0.84 | 0.18 | 84 | 1007.2 |
| 20260510002109 | 13 | 187 | 0.0 | 1.6 | 0.05 | 0.84 | 0.18 | 84 | 1007.4 |
| 20260510001610 | 13 | 186 | 0.0 | 3.2 | 0.13 | 0.84 | 0.18 | 84 | 1007.1 |
| 20260510000610 | 13 | 188 | 1.6 | 3.2 | 0.18 | 0.84 | 0.18 | 84 | 1007.5 |
| 20260510000110 | 13 | 192 | 3.2 | 4.8 | 0.18 | 0.86 | 0.18 | 85 | 1007.5 |
| 20260509235609 | 13 | 212 | 1.6 | 4.8 | 0.18 | 0.86 | 0.18 | 86 | 1007.6 |
| 20260509234609 | 13 | 198 | 3.2 | 4.8 | 0.15 | 0.84 | 0.15 | 86 | 1008.0 |
| 20260509234110 | 13 | 349 | 3.2 | 9.7 | 0.15 | 0.84 | 0.15 | 86 | 1007.7 |
| 20260509233610 | 13 | 1 | 4.8 | 11.3 | 0.13 | 0.81 | 0.13 | 85 | 1007.7 |
| 20260509233110 | 13 | 36 | 4.8 | 11.3 | 0.13 | 0.81 | 0.13 | 85 | 1007.5 |
| 20260509232610 | 13 | 171 | 3.2 | 9.7 | 0.13 | 0.81 | 0.13 | 84 | 1007.9 |
| 20260509232110 | 13 | 45 | 3.2 | 12.9 | 0.13 | 0.81 | 0.13 | 82 | 1007.6 |
| 20260509231609 | 15 | 288 | 3.2 | 16.1 | 0.05 | 0.74 | 0.05 | 79 | 1007.8 |
| 20260509231109 | 16 | 89 | 6.4 | 16.1 | 0.00 | 0.69 | 0.00 | 71 | 1007.3 |
| 20260509230610 | 19 | 6 | 12.9 | 25.7 | 0.00 | 0.69 | 0.00 | 62 | 1007.1 |
| 20260509225609 | 19 | 218 | 8.0 | 12.9 | 0.00 | 0.69 | 0.00 | 58 | 1006.0 |
| 20260509224609 | 20 | 211 | 9.7 | 16.1 | 0.00 | 0.69 | 0.00 | 56 | 1005.9 |
| 20260509223610 | 20 | 230 | 6.4 | 20.9 | 0.00 | 0.69 | 0.00 | 55 | 1005.7 |
| 20260509223109 | 20 | 219 | 4.8 | 16.1 | 0.00 | 0.69 | 0.00 | 55 | 1005.7 |
| 20260509222109 | 20 | 247 | 12.9 | 29.0 | 0.00 | 0.69 | 0.00 | 54 | 1005.6 |
| 20260509221610 | 20 | 227 | 9.7 | 27.4 | 0.00 | 0.69 | 0.00 | 54 | 1005.5 |
| 20260509221109 | 20 | 181 | 9.7 | 19.3 | 0.00 | 0.69 | 0.00 | 54 | 1005.7 |
| 20260509220610 | 20 | 236 | 9.7 | 27.4 | 0.00 | 0.69 | 0.00 | 54 | 1005.6 |
| 20260509220110 | 20 | 214 | 9.7 | 19.3 | 0.00 | 0.69 | 0.00 | 53 | 1005.4 |
| 20260509215609 | 20 | 247 | 11.3 | 27.4 | 0.00 | 0.69 | 0.00 | 54 | 1005.7 |
| 20260509215110 | 20 | 209 | 11.3 | 32.2 | 0.00 | 0.69 | 0.00 | 54 | 1005.6 |
| 20260509214610 | 21 | 120 | 8.0 | 19.3 | 0.00 | 0.69 | 0.00 | 53 | 1005.5 |
| 20260509214110 | 20 | 249 | 9.7 | 16.1 | 0.00 | 0.69 | 0.00 | 53 | 1005.5 |
| 20260509213609 | 20 | 227 | 12.9 | 32.2 | 0.00 | 0.69 | 0.00 | 53 | 1005.5 |
| 20260509212609 | 21 | 226 | 14.5 | 19.3 | 0.00 | 0.69 | 0.00 | 54 | 1005.7 |
| 20260509212110 | 21 | 248 | 11.3 | 19.3 | 0.00 | 0.69 | 0.00 | 53 | 1005.4 |
| 20260509211609 | 21 | 208 | 9.7 | 16.1 | 0.00 | 0.69 | 0.00 | 55 | 1005.5 |
| 20260509210610 | 21 | 232 | 11.3 | 27.4 | 0.00 | 0.69 | 0.00 | 55 | 1005.6 |
| 20260509205610 | 20 | 209 | 11.3 | 24.1 | 0.00 | 0.69 | 0.00 | 54 | 1005.7 |
| 20260509205110 | 21 | 244 | 9.7 | 24.1 | 0.00 | 0.69 | 0.00 | 54 | 1005.9 |
| 20260509204610 | 20 | 229 | 11.3 | 24.1 | 0.00 | 0.69 | 0.00 | 55 | 1005.8 |
| 20260509204110 | 20 | 142 | 12.9 | 22.5 | 0.00 | 0.69 | 0.00 | 55 | 1005.9 |
| 20260509203609 | 20 | 237 | 9.7 | 22.5 | 0.00 | 0.69 | 0.00 | 57 | 1006.0 |
| 20260509203109 | 20 | 211 | 11.3 | 32.2 | 0.00 | 0.69 | 0.00 | 56 | 1006.2 |
| 20260509202609 | 21 | 260 | 9.7 | 32.2 | 0.00 | 0.69 | 0.00 | 55 | 1006.4 |
| 20260509202110 | 20 | 212 | 8.0 | 11.3 | 0.00 | 0.69 | 0.00 | 56 | 1006.3 |
| 20260509201609 | 20 | 205 | 11.3 | 24.1 | 0.00 | 0.69 | 0.00 | 57 | 1006.4 |
| 20260509201109 | 21 | 135 | 9.7 | 20.9 | 0.00 | 0.69 | 0.00 | 55 | 1006.4 |
| 20260509200109 | 20 | 227 | 8.0 | 14.5 | 0.00 | 0.69 | 0.00 | 57 | 1006.5 |
| 20260509195109 | 20 | 182 | 11.3 | 16.1 | 0.00 | 0.69 | 0.00 | 57 | 1006.6 |
| 20260509194610 | 20 | 207 | 16.1 | 27.4 | 0.00 | 0.69 | 0.00 | 57 | 1006.6 |
| 20260509194109 | 20 | 220 | 9.7 | 19.3 | 0.00 | 0.69 | 0.00 | 58 | 1006.6 |
| 20260509193610 | 20 | 248 | 8.0 | 20.9 | 0.00 | 0.69 | 0.00 | 59 | 1006.7 |
| 20260509192610 | 20 | 219 | 11.3 | 27.4 | 0.00 | 0.69 | 0.00 | 58 | 1007.0 |
| 20260509192109 | 20 | 210 | 6.4 | 16.1 | 0.00 | 0.69 | 0.00 | 58 | 1007.0 |
| 20260509191609 | 20 | 210 | 11.3 | 19.3 | 0.00 | 0.69 | 0.00 | 57 | 1006.8 |
| 20260509191110 | 20 | 225 | 16.1 | 32.2 | 0.00 | 0.69 | 0.00 | 56 | 1006.8 |
| 20260509190609 | 20 | 246 | 9.7 | 19.3 | 0.00 | 0.69 | 0.00 | 58 | 1006.9 |
| 20260509190109 | 20 | 143 | 16.1 | 25.7 | 0.00 | 0.69 | 0.00 | 59 | 1007.0 |
| 20260509185609 | 20 | 252 | 14.5 | 25.7 | 0.00 | 0.69 | 0.00 | 59 | 1006.8 |
| 20260509185109 | 19 | 249 | 14.5 | 27.4 | 0.00 | 0.69 | 0.00 | 59 | 1007.1 |
| 20260509184109 | 20 | 269 | 12.9 | 35.4 | 0.00 | 0.69 | 0.00 | 58 | 1007.0 |
| 20260509183610 | 19 | 180 | 9.7 | 22.5 | 0.00 | 0.69 | 0.00 | 63 | 1007.4 |
| 20260509183110 | 19 | 211 | 14.5 | 20.9 | 0.00 | 0.69 | 0.00 | 62 | 1007.2 |
| 20260509182609 | 18 | 237 | 9.7 | 19.3 | 0.00 | 0.69 | 0.00 | 62 | 1007.1 |
| 20260509182109 | 18 | 194 | 11.3 | 27.4 | 0.00 | 0.69 | 0.00 | 63 | 1007.4 |
| 20260509181610 | 18 | 233 | 9.7 | 14.5 | 0.00 | 0.69 | 0.00 | 64 | 1007.5 |
| 20260509181109 | 18 | 230 | 8.0 | 25.7 | 0.00 | 0.69 | 0.00 | 66 | 1007.4 |
| 20260509180610 | 17 | 231 | 14.5 | 25.7 | 0.00 | 0.69 | 0.00 | 65 | 1007.1 |
| 20260509180109 | 18 | 156 | 9.7 | 22.5 | 0.00 | 0.69 | 0.00 | 63 | 1007.2 |
| 20260509175109 | 17 | 184 | 4.8 | 14.5 | 0.00 | 0.69 | 0.00 | 66 | 1007.5 |
| 20260509174609 | 17 | 231 | 8.0 | 14.5 | 0.00 | 0.69 | 0.00 | 65 | 1007.6 |
| 20260509174109 | 17 | 214 | 12.9 | 20.9 | 0.00 | 0.69 | 0.00 | 65 | 1007.5 |
| 20260509173609 | 17 | 259 | 8.0 | 20.9 | 0.00 | 0.69 | 0.00 | 66 | 1007.7 |
| 20260509173109 | 17 | 210 | 8.0 | 22.5 | 0.00 | 0.69 | 0.00 | 67 | 1007.5 |
| 20260509172609 | 17 | 249 | 11.3 | 25.7 | 0.00 | 0.69 | 0.00 | 67 | 1007.4 |
| 20260509172109 | 17 | 219 | 8.0 | 22.5 | 0.00 | 0.69 | 0.00 | 67 | 1007.6 |
| 20260509171609 | 17 | 199 | 9.7 | 22.5 | 0.00 | 0.69 | 0.00 | 68 | 1007.7 |
| 20260509171109 | 17 | 171 | 9.7 | 22.5 | 0.00 | 0.69 | 0.00 | 67 | 1007.8 |
| 20260509170610 | 17 | 219 | 9.7 | 22.5 | 0.00 | 0.69 | 0.00 | 66 | 1007.8 |
| 20260509170109 | 17 | 186 | 11.3 | 20.9 | 0.00 | 0.71 | 0.00 | 68 | 1007.6 |
| 20260509165609 | 17 | 137 | 3.2 | 12.9 | 0.00 | 0.71 | 0.00 | 68 | 1007.7 |
| 20260509165110 | 17 | 224 | 3.2 | 4.8 | 0.00 | 0.71 | 0.00 | 69 | 1007.6 |
| 20260509164609 | 17 | 224 | 3.2 | 11.3 | 0.00 | 0.71 | 0.00 | 69 | 1007.7 |
| 20260509164110 | 17 | 236 | 8.0 | 16.1 | 0.00 | 0.71 | 0.00 | 68 | 1007.7 |
| 20260509163609 | 16 | 260 | 3.2 | 9.7 | 0.00 | 0.71 | 0.00 | 68 | 1007.7 |
| 20260509163109 | 17 | 224 | 8.0 | 12.9 | 0.00 | 0.71 | 0.00 | 70 | 1007.5 |
| 20260509162109 | 16 | 280 | 9.7 | 14.5 | 0.00 | 0.71 | 0.00 | 70 | 1007.5 |
| 20260509161609 | 16 | 213 | 9.7 | 14.5 | 0.00 | 0.71 | 0.00 | 70 | 1007.6 |
| 20260509161110 | 16 | 216 | 8.0 | 11.3 | 0.00 | 0.71 | 0.00 | 71 | 1007.6 |
| 20260509160609 | 16 | 151 | 3.2 | 9.7 | 0.00 | 0.71 | 0.00 | 71 | 1007.8 |
| 20260509160109 | 16 | 187 | 4.8 | 14.5 | 0.00 | 0.71 | 0.00 | 71 | 1007.9 |
| 20260509155609 | 16 | 230 | 8.0 | 12.9 | 0.00 | 0.74 | 0.00 | 72 | 1008.0 |
| 20260509154609 | 15 | 207 | 6.4 | 11.3 | 0.00 | 0.76 | 0.00 | 73 | 1008.0 |
| 20260509154109 | 15 | 248 | 8.0 | 14.5 | 0.00 | 0.76 | 0.00 | 72 | 1007.9 |
| 20260509153609 | 16 | 253 | 6.4 | 16.1 | 0.00 | 0.76 | 0.00 | 72 | 1007.9 |
| 20260509153110 | 15 | 245 | 3.2 | 12.9 | 0.00 | 0.76 | 0.00 | 72 | 1008.0 |
| 20260509152609 | 15 | 235 | 4.8 | 12.9 | 0.00 | 0.76 | 0.00 | 75 | 1008.3 |
| 20260509152109 | 15 | 251 | 4.8 | 12.9 | 0.00 | 0.76 | 0.00 | 77 | 1008.1 |
| 20260509151610 | 15 | 97 | 3.2 | 12.9 | 0.00 | 0.79 | 0.00 | 76 | 1007.9 |
| 20260509150610 | 14 | 226 | 4.8 | 14.5 | 0.00 | 0.79 | 0.00 | 77 | 1008.0 |
| 20260509145610 | 14 | 234 | 11.3 | 14.5 | 0.00 | 0.79 | 0.00 | 78 | 1008.1 |
| 20260509144109 | 13 | 230 | 9.7 | 14.5 | 0.00 | 0.79 | 0.00 | 82 | 1008.2 |
| 20260509143610 | 13 | 222 | 9.7 | 14.5 | 0.00 | 0.79 | 0.00 | 82 | 1008.0 |
| 20260509143109 | 13 | 221 | 8.0 | 12.9 | 0.00 | 0.79 | 0.00 | 82 | 1008.0 |
| 20260509142109 | 13 | 237 | 4.8 | 12.9 | 0.00 | 0.79 | 0.00 | 84 | 1007.9 |
| 20260509141609 | 13 | 224 | 8.0 | 22.5 | 0.00 | 0.79 | 0.00 | 84 | 1008.2 |
| 20260509141109 | 13 | 234 | 9.7 | 19.3 | 0.00 | 0.79 | 0.00 | 85 | 1007.8 |
| 20260509140609 | 13 | 245 | 4.8 | 22.5 | 0.00 | 0.79 | 0.00 | 86 | 1007.7 |